Simultaneous Nadir Overpasses (SNOs) Predictions

Prediction of SNOs between FY3D and AQUA Satellite Orbit:

Table of predicted SNOs for the next 14.0 days since TLE Epoch: 6/26/2021
Index Date (FY3D) Time (FY3D) Lat,Lon (FY3D) SZA (FY3D ) Date (AQUA) Time (AQUA) Lat,Lon (AQUA) SZA (AQUA ) Distance(km) Time Diff (sec)
1 06/26/2021 04:10:36 55.17, 129.10 32.71 06/26/2021 04:11:30 55.17, 129.08 32.75 1.36 54
2 06/26/2021 04:58:57 -47.12, -59.75 153.77 06/26/2021 04:58:38 -47.15, -59.70 153.76 5.03 19
3 06/28/2021 20:27:42 57.86,-116.56 35.15 06/28/2021 20:28:44 57.85,-116.53 35.18 2.03 62
4 06/28/2021 21:15:17 -47.19, 56.16 153.65 06/28/2021 21:15:07 -47.19, 56.17 153.67 0.51 10
5 07/01/2021 12:44:20 58.95, -1.33 36.27 07/01/2021 12:45:31 58.94, -1.31 36.31 1.13 71
6 07/01/2021 13:32:23 -49.89, 170.94 151.44 07/01/2021 13:32:21 -49.89, 170.96 151.44 1.60 2
7 07/04/2021 05:05:25 74.36, 94.90 51.69 07/04/2021 05:06:38 74.53, 95.97 51.79 37.14 73
8 07/04/2021 05:48:57 -50.76, -73.52 150.57 07/04/2021 05:49:04 -50.77, -73.53 150.56 1.07 7
9 07/04/2021 06:39:32 50.07, 94.11 28.88 07/04/2021 06:38:22 50.12, 94.38 28.91 20.05 70
10 07/06/2021 21:28:13 76.76, 103.36 73.67 07/06/2021 21:29:26 77.24, 100.80 73.86 83.17 73
11 07/06/2021 22:05:55 -53.06, 41.31 148.43 07/06/2021 22:06:10 -53.06, 41.31 148.42 0.06 15
12 07/06/2021 22:55:39 49.46,-149.68 28.62 07/06/2021 22:54:39 49.52,-149.49 28.65 15.38 60
13 07/09/2021 14:22:50 -55.12, 156.16 146.38 07/09/2021 14:23:13 -55.12, 156.17 146.37 0.98 23



Historial Predications of SNOs between FY3D and AQUA
